Wind_Speed
22 21 21 21 21 21 21 21 21 21 20 20 21 22 23 24 24 25 25 24 24 25 25 25 24 24 23 22 22 21 21 21 21 21 22 22 23 23 24 25 25 26 26
20 20 19 19 19 20 20 20 21 21 20 21 21 22 23 24 24 25 25 24 24 24 24 24 24 23 22 22 21 21 20 20 20 20 21 22 23 23 24 25 25 26 26
20 20 19 19 19 19 19 19 20 19 19 20 22 22 23 24 24 24 24 24 24 24 24 24 23 22 21 21 21 20 20 20 21 21 21 21 21 22 23 24 24 25 25
19 19 18 18 19 18 18 19 19 19 20 21 21 22 23 23 23 23 23 23 23 23 22 22 22 22 22 21 21 20 20 21 21 21 21 21 21 22 22 23 23 23 23
18 18 18 18 18 17 18 18 19 19 20 21 21 22 22 22 23 23 22 22 22 22 22 22 22 23 23 23 22 21 21 21 21 21 21 21 21 22 22 23 23 23 24
18 17 17 17 16 16 17 18 18 19 20 21 21 21 22 22 22 22 22 22 22 23 23 23 22 23 23 23 23 22 22 22 21 21 21 21 21 21 22 22 23 23 24
17 17 16 16 15 15 16 16 17 18 20 20 21 21 21 22 22 21 22 22 23 23 23 23 23 23 24 23 23 23 23 22 22 21 21 21 21 21 22 22 21 22 22
16 16 15 14 14 15 15 16 17 18 19 19 20 21 21 21 22 22 22 23 23 23 23 23 24 24 25 25 24 23 23 23 23 22 22 22 22 23 22 22 21 21 22
15 13 13 12 13 14 15 15 16 18 18 18 20 21 21 21 22 22 23 23 23 24 24 24 25 25 25 25 24 22 22 22 23 23 23 23 23 22 22 21 22 22 21
13 11 10 11 12 14 14 15 16 16 17 18 19 20 21 21 21 22 23 23 24 25 25 25 25 25 25 24 24 23 23 22 23 23 23 23 22 22 22 22 22 22 22
11 9 9 10 11 12 13 14 15 16 16 17 18 19 20 21 21 22 23 24 25 25 25 25 26 26 25 25 24 23 23 23 22 22 22 22 22 22 22 23 23 22 22
8 7 7 9 11 11 12 13 15 15 16 17 18 19 20 20 21 22 24 25 25 24 25 26 26 26 25 25 24 23 23 22 22 22 22 22 22 22 23 23 23 23 23
5 5 7 9 10 11 12 13 14 15 16 17 18 19 20 21 21 22 24 25 25 25 25 25 25 26 26 25 24 23 23 23 23 23 22 21 21 21 22 22 23 24 24
5 5 6 8 9 10 12 13 14 15 16 17 18 19 20 21 22 24 25 25 25 26 26 26 26 26 26 25 25 25 25 24 23 23 22 22 22 22 22 23 24 25 26
5 6 7 8 9 10 12 13 14 16 17 18 19 20 21 22 24 25 26 26 26 26 26 26 26 26 27 27 26 26 26 25 24 23 23 23 23 24 24 24 24 25 26
5 5 7 8 9 10 11 13 15 16 17 19 20 21 22 23 25 26 27 27 26 26 27 27 27 27 27 27 27 27 26 26 25 25 24 24 23 23 23 23 24 24 24
5 5 7 9 9 10 11 13 15 16 17 18 20 21 23 24 26 26 27 27 27 28 28 28 28 28 28 28 28 28 28 28 27 26 25 24 24 23 23 23 23 23 23
4 5 7 9 10 11 12 14 15 17 18 19 20 22 23 25 26 27 27 27 28 28 29 29 29 29 29 29 29 29 29 29 28 27 26 24 23 22 21 22 22 22 22
4 5 7 9 10 11 13 15 16 18 19 20 21 23 24 26 27 27 27 28 28 29 29 30 30 30 30 30 30 29 29 29 29 27 25 23 22 22 22 21 21 21 21
4 5 7 9 11 12 13 15 17 19 20 21 23 24 26 27 28 28 27 28 29 29 30 30 30 31 31 31 30 30 29 29 28 27 25 23 22 22 21 21 21 20 20
4 6 8 9 11 12 13 15 17 19 21 22 24 26 27 28 28 28 28 29 30 30 31 31 31 31 31 31 31 31 30 29 28 27 25 24 23 22 21 21 21 20 20
4 6 8 9 11 12 14 15 17 19 21 23 25 27 28 29 29 29 29 30 31 32 32 32 32 32 32 31 32 31 31 30 29 28 26 24 24 23 22 21 21 21 20
4 6 8 10 11 12 14 15 17 19 21 23 25 27 28 29 30 30 30 31 31 32 32 32 33 33 33 33 32 32 31 30 29 28 27 25 24 23 22 22 21 21 20
5 6 8 10 11 12 13 15 18 20 22 24 25 27 28 29 30 31 31 32 32 33 33 34 34 34 34 34 33 32 31 31 30 28 27 26 25 24 23 22 21 21 20
4 6 8 10 11 12 14 16 18 20 22 23 25 26 28 29 30 31 32 32 33 34 35 35 35 35 35 35 35 33 32 32 31 30 28 27 26 25 24 23 22 22 21
4 6 8 10 11 13 14 16 18 20 22 24 25 27 28 29 30 31 32 33 34 35 35 36 36 36 36 36 36 34 33 32 31 30 29 28 26 25 24 23 23 22 22
Wind_Direction
298 300 300 301 301 301 299 301 305 308 307 308 310 311 313 314 315 316 315 314 313 311 310 309 309 308 307 305 302 299 296 291 285 282 283 281 277 273 272 270 269 267 267
300 302 302 302 303 302 301 302 304 306 306 309 310 313 314 314 315 317 316 314 314 313 312 311 309 308 307 306 302 299 297 293 290 289 286 284 280 277 273 272 270 269 267
301 301 300 300 301 302 301 302 305 309 312 313 314 315 316 317 317 317 318 316 315 315 314 315 312 309 308 306 303 300 298 297 294 292 290 286 283 279 274 272 271 272 269
299 298 299 298 298 300 303 305 308 311 313 315 316 319 320 320 321 321 320 319 319 318 317 316 315 312 311 306 303 300 297 297 294 292 292 288 284 283 279 275 273 273 271
300 299 299 299 299 303 306 307 309 311 313 317 320 322 323 322 323 324 323 323 322 322 320 319 317 315 312 309 306 302 300 298 295 291 292 291 287 286 284 277 274 272 270
299 299 300 299 301 304 306 308 310 312 315 319 322 323 324 325 325 325 324 323 322 321 321 320 318 317 315 311 308 305 302 299 295 292 292 291 288 288 285 280 276 272 269
300 298 301 300 303 307 307 309 311 314 318 321 324 325 325 326 327 327 326 325 324 324 323 322 320 319 316 312 308 305 303 301 299 296 294 292 289 288 286 283 279 274 272
302 300 300 302 306 308 310 311 314 317 319 321 325 327 328 328 328 328 327 327 326 326 325 323 320 319 318 315 311 308 304 301 300 297 293 290 289 287 286 282 280 277 274
301 303 302 304 309 313 315 316 319 321 323 323 326 328 329 329 328 328 328 327 327 326 324 323 321 321 320 318 315 311 308 302 298 298 295 291 288 286 282 282 279 277 275
302 303 302 307 314 318 320 322 324 325 326 326 328 331 331 330 330 329 329 329 328 328 327 325 323 322 322 319 316 312 310 305 300 296 294 290 287 286 284 283 282 279 275
303 303 305 314 320 323 324 326 329 330 331 331 332 333 333 331 330 330 331 331 331 332 330 328 327 326 325 323 320 315 312 310 305 301 296 291 288 286 285 282 282 280 276
307 310 316 323 327 330 332 332 333 336 337 337 337 336 335 335 333 334 335 335 334 333 331 330 329 329 329 326 324 320 316 313 310 306 301 294 290 288 286 283 282 280 276
316 318 321 325 329 331 334 337 340 342 343 342 341 339 339 340 340 339 338 337 336 335 334 334 333 332 332 331 327 324 322 318 313 308 304 300 294 290 288 286 283 281 278
325 325 327 331 332 336 341 344 345 348 349 348 347 345 345 344 343 342 340 338 337 336 336 336 335 333 333 332 329 324 323 322 318 313 307 303 299 293 291 289 286 283 280
345 343 340 339 343 347 349 349 351 352 352 352 351 349 347 346 345 344 343 340 338 338 338 337 335 334 333 333 331 328 325 324 321 316 312 306 302 297 293 290 288 287 283
358 357 355 354 353 352 353 354 357 356 354 355 354 352 350 349 346 345 345 343 342 341 340 338 337 336 336 335 334 333 331 327 324 321 317 313 307 302 297 294 292 290 286
6 5 1 359 356 353 353 354 355 355 354 355 354 353 352 350 349 348 347 346 345 344 343 341 340 339 338 337 337 335 333 331 328 325 320 315 312 308 304 301 297 293 288
7 5 2 0 357 357 357 357 357 356 356 355 354 352 351 350 350 350 349 348 347 346 345 344 343 341 340 339 337 336 335 333 332 327 323 319 315 313 310 308 304 297 293
5 6 4 1 360 1 2 2 1 359 357 357 356 354 353 352 352 352 351 351 350 349 348 347 345 344 343 341 340 338 337 336 335 333 330 327 323 318 315 313 309 303 297
3 7 6 4 4 2 1 1 0 360 358 358 356 355 354 353 353 353 354 353 352 351 349 347 346 345 345 344 342 340 339 339 337 336 333 329 325 321 319 316 312 307 302
13 11 5 1 1 360 358 358 0 0 358 357 355 354 353 352 354 354 354 354 353 352 350 348 347 347 347 346 345 343 342 341 341 339 336 333 329 326 323 319 315 311 305
359 3 1 359 358 357 357 357 358 359 358 356 355 354 354 354 355 355 354 353 352 352 351 351 350 349 348 348 346 345 345 344 343 342 340 336 333 331 327 323 320 316 311
352 356 356 358 356 355 356 356 356 357 356 356 356 356 355 355 356 356 355 353 353 353 353 352 352 351 350 348 347 346 346 345 344 344 343 340 337 336 333 328 325 323 320
358 357 357 358 358 358 356 356 357 357 357 357 358 357 356 357 356 356 356 356 355 355 354 353 353 352 351 350 349 348 348 347 346 346 344 342 340 338 336 333 329 326 323
351 357 359 358 357 358 357 357 357 356 356 356 356 356 356 356 357 357 357 357 357 357 355 354 353 352 352 352 351 351 350 349 348 347 346 344 342 340 338 335 333 329 326
342 349 352 355 357 357 357 357 357 356 356 356 356 356 356 355 356 357 357 357 356 356 355 354 353 353 352 352 352 352 351 351 350 349 347 346 344 343 341 338 336 334 331
Height
5775 5773 5772 5770 5769 5767 5765 5763 5760 5758 5757 5754 5751 5748 5746 5742 5739 5735 5732 5728 5724 5721 5717 5714 5710 5707 5704 5701 5699 5697 5695 5693 5693 5692 5691 5690 5690 5690 5690 5690 5690 5690 5691
5770 5769 5767 5766 5764 5762 5761 5759 5756 5754 5752 5750 5747 5744 5741 5738 5734 5730 5727 5723 5719 5715 5712 5708 5705 5702 5699 5696 5694 5692 5690 5688 5687 5686 5685 5684 5683 5683 5682 5682 5682 5682 5683
5766 5764 5763 5762 5760 5758 5756 5754 5752 5750 5747 5745 5742 5739 5736 5733 5729 5725 5722 5718 5714 5710 5707 5704 5700 5697 5694 5691 5689 5687 5685 5683 5681 5680 5679 5678 5677 5676 5675 5675 5675 5675 5675
5761 5759 5758 5757 5756 5754 5752 5750 5748 5746 5743 5741 5738 5735 5731 5728 5724 5721 5717 5713 5709 5706 5702 5699 5696 5692 5689 5687 5684 5682 5680 5678 5676 5674 5673 5671 5670 5669 5668 5668 5668 5668 5668
5756 5755 5754 5753 5751 5750 5748 5746 5744 5742 5739 5737 5734 5730 5727 5724 5720 5717 5713 5709 5705 5702 5698 5695 5691 5688 5685 5682 5679 5677 5674 5672 5670 5668 5667 5665 5664 5662 5662 5661 5660 5660 5660
5752 5751 5750 5749 5747 5746 5744 5742 5740 5738 5736 5733 5730 5727 5724 5720 5716 5712 5709 5705 5702 5698 5694 5690 5687 5684 5680 5677 5674 5671 5669 5666 5664 5662 5660 5658 5657 5656 5655 5654 5653 5653 5653
5748 5747 5746 5745 5744 5742 5740 5739 5737 5735 5732 5729 5727 5724 5720 5717 5713 5709 5705 5702 5698 5694 5690 5686 5682 5679 5675 5671 5668 5665 5662 5660 5658 5656 5654 5652 5651 5649 5648 5647 5646 5646 5646
5744 5743 5742 5741 5740 5739 5737 5735 5733 5731 5729 5726 5723 5720 5717 5713 5709 5706 5702 5698 5694 5690 5686 5682 5678 5674 5669 5665 5662 5659 5656 5654 5652 5650 5648 5646 5644 5643 5642 5641 5640 5639 5639
5740 5739 5738 5738 5737 5736 5734 5732 5730 5728 5725 5723 5720 5717 5714 5710 5706 5702 5698 5694 5690 5686 5682 5678 5674 5669 5665 5660 5657 5653 5651 5648 5645 5643 5641 5639 5638 5636 5635 5634 5633 5632 5632
5737 5736 5736 5735 5734 5733 5732 5729 5727 5725 5723 5720 5717 5714 5710 5707 5703 5699 5695 5691 5686 5682 5677 5673 5669 5664 5660 5655 5651 5647 5645 5642 5639 5637 5635 5633 5631 5629 5628 5627 5626 5625 5625
5734 5734 5734 5733 5732 5731 5729 5727 5725 5723 5720 5717 5714 5711 5708 5704 5700 5696 5691 5687 5682 5678 5673 5669 5664 5660 5655 5650 5645 5642 5638 5636 5633 5630 5628 5626 5624 5623 5621 5620 5619 5618 5617
5732 5732 5732 5732 5731 5729 5728 5725 5723 5720 5718 5715 5712 5708 5704 5701 5697 5692 5688 5683 5678 5674 5669 5664 5660 5655 5650 5645 5641 5637 5633 5630 5627 5624 5622 5619 5618 5616 5614 5612 5611 5610 5609
5731 5731 5731 5730 5729 5728 5726 5724 5721 5719 5716 5713 5709 5706 5702 5698 5694 5689 5685 5680 5675 5670 5665 5660 5655 5650 5646 5641 5636 5632 5628 5624 5621 5618 5615 5612 5610 5608 5606 5605 5603 5602 5601
5730 5730 5730 5729 5728 5727 5725 5723 5720 5717 5714 5711 5708 5704 5700 5696 5691 5687 5682 5677 5672 5667 5662 5657 5652 5647 5642 5637 5632 5627 5622 5618 5614 5611 5608 5605 5603 5601 5599 5597 5595 5594 5593
5729 5729 5729 5728 5727 5726 5724 5722 5719 5716 5713 5710 5706 5702 5698 5694 5689 5684 5679 5674 5669 5664 5658 5653 5648 5643 5638 5632 5627 5622 5617 5613 5609 5605 5601 5598 5596 5593 5591 5589 5587 5586 5584
5730 5729 5728 5728 5727 5725 5723 5721 5718 5716 5712 5709 5705 5701 5697 5693 5688 5682 5677 5671 5666 5661 5655 5650 5645 5639 5634 5628 5623 5618 5612 5608 5603 5599 5595 5592 5589 5586 5583 5581 5579 5577 5576
5730 5729 5728 5728 5726 5725 5723 5721 5718 5715 5712 5709 5705 5700 5696 5691 5686 5681 5675 5669 5664 5658 5652 5646 5641 5635 5629 5624 5619 5613 5608 5603 5598 5593 5589 5585 5582 5579 5576 5573 5571 5569 5567
5730 5729 5729 5728 5726 5725 5723 5720 5717 5715 5712 5708 5704 5700 5695 5690 5685 5679 5673 5667 5662 5656 5650 5644 5638 5632 5626 5620 5615 5609 5603 5598 5593 5588 5584 5579 5576 5572 5570 5567 5564 5562 5560
5730 5730 5729 5728 5726 5724 5722 5720 5717 5714 5710 5707 5703 5699 5694 5689 5683 5677 5671 5665 5659 5654 5647 5641 5635 5629 5623 5617 5611 5605 5599 5593 5588 5583 5578 5574 5570 5567 5564 5560 5557 5555 5552
5730 5730 5729 5728 5726 5725 5722 5720 5717 5714 5710 5706 5702 5697 5693 5687 5682 5676 5670 5664 5658 5652 5645 5639 5633 5626 5620 5614 5607 5601 5595 5590 5584 5579 5574 5569 5565 5561 5558 5555 5551 5549 5546
5730 5730 5729 5728 5726 5725 5723 5720 5717 5713 5710 5706 5701 5697 5691 5686 5680 5675 5669 5663 5656 5650 5644 5637 5630 5624 5617 5611 5604 5598 5592 5586 5580 5575 5569 5565 5560 5557 5553 5549 5546 5542 5539
5731 5730 5729 5728 5726 5725 5722 5720 5717 5713 5709 5706 5701 5696 5690 5685 5679 5673 5667 5661 5655 5649 5642 5635 5629 5622 5615 5608 5602 5595 5589 5583 5577 5571 5566 5561 5556 5552 5548 5544 5541 5537 5534
5731 5730 5729 5728 5726 5724 5722 5719 5716 5713 5709 5705 5700 5695 5690 5684 5678 5672 5666 5660 5654 5647 5641 5634 5627 5620 5613 5606 5599 5593 5586 5580 5574 5568 5563 5557 5552 5548 5543 5539 5536 5532 5529
5730 5730 5729 5728 5726 5724 5722 5719 5716 5713 5709 5705 5700 5695 5689 5683 5677 5671 5665 5659 5653 5646 5639 5632 5625 5618 5611 5604 5597 5590 5583 5577 5571 5565 5559 5554 5549 5544 5540 5535 5531 5528 5524
5730 5730 5729 5727 5726 5724 5722 5719 5716 5712 5708 5704 5699 5694 5688 5683 5677 5671 5665 5658 5651 5645 5638 5631 5623 5616 5609 5602 5595 5587 5581 5574 5568 5562 5556 5551 5546 5541 5536 5531 5527 5523 5519
5730 5730 5729 5727 5725 5723 5721 5718 5715 5711 5708 5703 5698 5693 5688 5682 5676 5670 5664 5657 5650 5643 5636 5629 5622 5614 5607 5600 5593 5585 5579 5572 5566 5559 5553 5548 5542 5537 5532 5528 5523 5519 5515